Overview Statistics Trail Chart Weather Telemetry Raw packets
 

This is the latest recevied weather packets stored in our database for station/object IZ1RFL-3. If no packets are shown the sender has not sent any weather packets the latest 10 day(s).

<< 1 2 3 4 5 >>
Time Temp. Humidity Pressure Rain* Wind** Luminosity Snow
1788550053 28.89° C 49% 1018 hPa - - - -
1788549153 28.33° C 49% 1017.8 hPa - - - -
1788548254 28.89° C 47% 1017.8 hPa - - - -
1788547353 28.89° C 47% 1017.4 hPa - - - -
1788546453 29.44° C 47% 1017.3 hPa - - - -
1788545553 29.44° C 47% 1017.3 hPa - - - -
1788544653 29.44° C 46% 1017.1 hPa - - - -
1788543753 30° C 45% 1017 hPa - - - -
1788542853 30° C 45% 1016.9 hPa - - - -
1788541953 30.56° C 43% 1017 hPa - - - -
1788541053 31.11° C 41% 1017.1 hPa - - - -
1788540153 31.11° C 39% 1017.1 hPa - - - -
1788539253 31.67° C 37% 1017.2 hPa - - - -
1788538353 31.67° C 36% 1017.3 hPa - - - -
1788537453 32.22° C 36% 1017.4 hPa - - - -
1788536552 32.78° C 33% 1017.5 hPa - - - -
1788535653 32.78° C 33% 1017.5 hPa - - - -
1788534753 32.22° C 33% 1017.6 hPa - - - -
1788533852 33.33° C 31% 1017.7 hPa - - - -
1788532953 33.33° C 29% 1017.8 hPa - - - -
1788532053 33.89° C 28% 1017.9 hPa - - - -
1788531152 34.44° C 27% 1017.9 hPa - - - -
1788530253 35° C 26% 1017.8 hPa - - - -
1788529352 34.44° C 26% 1018.3 hPa - - - -
1788528452 35.56° C 24% 1018.2 hPa - - - -

* Rain since midnight (hover to see other rain measurements)
** Current wind speed in m/s (hover to see current wind gust speed)